Location: Irma
(52.9170°N, 111.2330°W)
Time: 00:14:04
(UTC-06:00)

Amateur Radio Satellites - All Passes

Search period start: 27 July 2014 23:44
Search period end: 28 July 2014 23:44
Location: Irma, 52.9170°N, 111.2330°W

Satellite Date Start Highest point End Downlink Frequencies (MHz)
Time Altitude Azimuth
UOSAT-12 27 Jul 23:53:07 23:57:48 60° 232° (SW) 00:02:26 437.025 FM, 437.400 FM
FUNcube-1 27 Jul 23:56:15 23:59:43 23° 267° (W) 00:03:09 145.950 - 145.970 MHz USB
MaSat-1 28 Jul 00:09:59 00:14:08 34° 319° (NW) 00:18:45 437.345 MHz
ISS 28 Jul 00:53:20 00:55:22 15° 143° (SE) 00:57:24 145.800 FM
Lituanica SAT-1 28 Jul 00:56:44 00:58:12 26° 163° (SSE) 00:59:41 437.275 MHz beacon
Sapphire 28 Jul 00:59:43 01:03:21 19° 107° (ESE) 01:07:00 437.095 MHz 1200 baud AX-25 AFSK
AO-40 28 Jul 01:29:15 06:29:04 27° 172° (S) 08:39:46 Beacon 2401.320
RS-15 28 Jul 01:29:49 01:37:39 23° 260° (W) 01:45:42 29.354 - 29.394 USB, Beacon 29.352 USB
PCSat 28 Jul 01:31:45 01:36:32 33° 114° (ESE) 01:41:21 145.825 MHz
UOSAT-12 28 Jul 01:35:38 01:37:02 11° 252° (WSW) 01:38:25 437.025 FM, 437.400 FM
Oscar 16 28 Jul 01:49:30 01:52:52 17° 87° (E) 01:56:12 437.025 USB, Beacon 2401.1428
MaSat-1 28 Jul 01:50:13 01:53:01 15° 343° (NNW) 01:55:56 437.345 MHz
OPAL 28 Jul 02:06:33 02:08:33 12° 43° (NE) 02:10:34 ?
ITAMSAT 1 28 Jul 02:09:10 02:11:01 12° 83° (E) 02:12:51 435.822 SSB
Oscar 10/S400 28 Jul 02:20:30 03:00:06 47° 186° (S) 10:06:53 145.825 - 145.975 CW/USB, Beacon 145.810 USB
AO-27 28 Jul 02:26:56 02:30:17 17° 87° (E) 02:33:38 436.795 MHz FM
Uribyol 2 28 Jul 02:27:41 02:31:09 18° 88° (E) 02:34:37 436.500 FM
Lituanica SAT-1 28 Jul 02:27:42 02:29:19 52° 180° (S) 02:30:55 437.275 MHz beacon
ISS 28 Jul 02:28:17 02:31:31 47° 161° (SSE) 02:34:47 145.800 FM
Sapphire 28 Jul 02:40:38 02:46:03 86° 127° (SE) 02:51:31 437.095 MHz 1200 baud AX-25 AFSK
Gurwin Techsat 1B 28 Jul 02:44:27 02:45:54 11° 82° (E) 02:47:21 435.225 FM
JAS-1B 28 Jul 02:56:06 03:04:23 31° 85° (E) 03:11:48 435.800 - 435.900 CW/SSB
Oscar 19 28 Jul 02:59:31 03:04:38 57° 101° (E) 03:09:43 437.125 CW, 437.150 USB
PCSat 28 Jul 03:14:23 03:19:44 59° 315° (NW) 03:25:08 145.825 MHz
AO-Echo 28 Jul 03:24:37 03:29:38 49° 99° (E) 03:34:27 ?
Oscar 16 28 Jul 03:27:44 03:32:56 86° 287° (WNW) 03:38:07 437.025 USB, Beacon 2401.1428
MaSat-1 28 Jul 03:30:10 03:32:30 13° 8° (N) 03:34:53 437.345 MHz
OPAL 28 Jul 03:41:39 03:46:26 52° 64° (ENE) 03:51:17 ?
ITAMSAT 1 28 Jul 03:46:21 03:51:32 68° 103° (ESE) 03:56:41 435.822 SSB
AO-7 28 Jul 03:46:44 03:49:00 11° 77° (ENE) 03:51:16 29.400 - 29.500 MHz
TMSAT-1 28 Jul 03:58:13 04:02:58 32° 94° (E) 04:07:41 436.925 FM
Lituanica SAT-1 28 Jul 03:59:00 04:00:18 20° 200° (SSW) 04:01:35 437.275 MHz beacon
ISS 28 Jul 04:04:44 04:08:06 73° 182° (S) 04:11:28 145.800 FM
AO-27 28 Jul 04:05:18 04:10:33 87° 287° (WNW) 04:15:44 436.795 MHz FM
Uribyol 2 28 Jul 04:06:07 04:11:19 83° 288° (WNW) 04:16:29 436.500 FM
Gurwin Techsat 1B 28 Jul 04:21:42 04:27:00 63° 102° (ESE) 04:32:15 435.225 FM
Sapphire 28 Jul 04:25:22 04:30:08 30° 330° (NNW) 04:34:55 437.095 MHz 1200 baud AX-25 AFSK
Oscar 19 28 Jul 04:39:21 04:43:43 29° 301° (WNW) 04:48:06 437.125 CW, 437.150 USB
JAS-1B 28 Jul 04:46:13 04:56:02 85° 289° (WNW) 05:04:37 435.800 - 435.900 CW/SSB
PCSat 28 Jul 04:59:56 05:04:15 23° 339° (NNW) 05:08:35 145.825 MHz
AO-Echo 28 Jul 05:03:42 05:08:14 32° 299° (WNW) 05:12:38 ?
MaSat-1 28 Jul 05:07:34 05:11:43 23° 31° (NNE) 05:15:54 437.345 MHz
Oscar 16 28 Jul 05:08:08 05:11:38 19° 307° (NW) 05:15:08 437.025 USB, Beacon 2401.1428
Uosat F 28 Jul 05:20:44 05:25:28 39° 97° (E) 05:30:09 435.120 FM
OPAL 28 Jul 05:21:25 05:25:37 28° 264° (W) 05:29:52 ?
ITAMSAT 1 28 Jul 05:26:29 05:30:39 25° 303° (WNW) 05:34:47 435.822 SSB
AO-7 28 Jul 05:36:00 05:44:05 50° 100° (E) 05:52:03 29.400 - 29.500 MHz
TMSAT-1 28 Jul 05:38:01 05:43:07 48° 294° (WNW) 05:48:10 436.925 FM
ISS 28 Jul 05:41:26 05:44:38 42° 201° (SSW) 05:47:50 145.800 FM
AO-27 28 Jul 05:45:50 05:49:24 19° 308° (NW) 05:52:57 436.795 MHz FM
Uribyol 2 28 Jul 05:46:41 05:50:07 18° 308° (NW) 05:53:32 436.500 FM
JAS-2 28 Jul 05:58:04 05:59:19 11° 76° (ENE) 06:00:32 435.800 - 435.900 CW/SSB, 435.910 FM
Gurwin Techsat 1B 28 Jul 06:02:13 06:06:38 27° 302° (WNW) 06:11:03 435.225 FM
STRAND 1 28 Jul 06:03:32 06:08:04 32° 61° (ENE) 06:12:36 ?
Sapphire 28 Jul 06:11:31 06:15:16 18° 356° (N) 06:19:01 437.095 MHz 1200 baud AX-25 AFSK
JAS-1B 28 Jul 06:37:09 06:45:19 32° 314° (NW) 06:52:50 435.800 - 435.900 CW/SSB
MaSat-1 28 Jul 06:44:39 06:49:59 71° 53° (NE) 06:55:12 437.345 MHz
PCSat 28 Jul 06:45:48 06:49:34 19° 5° (N) 06:53:21 145.825 MHz
Hamsat 28 Jul 06:46:00 06:49:37 26° 93° (E) 06:53:15 145.90 MHz
Uosat F 28 Jul 06:59:38 07:04:16 38° 297° (WNW) 07:08:52 435.120 FM
KITSAT 1 28 Jul 07:00:11 07:07:39 43° 114° (ESE) 07:15:09 435.175 FM
ISS 28 Jul 07:19:09 07:20:44 13° 220° (SW) 07:22:18 145.800 FM
TMSAT-1 28 Jul 07:20:06 07:21:53 12° 315° (NW) 07:23:40 436.925 FM
AO-7 28 Jul 07:28:59 07:37:01 54° 303° (WNW) 07:44:59 29.400 - 29.500 MHz
Saudisat 1A 28 Jul 07:36:44 07:37:18 10° 109° (ESE) 07:37:51 436.775 MHz
JAS-2 28 Jul 07:39:55 07:46:08 58° 100° (E) 07:51:36 435.800 - 435.900 CW/SSB, 435.910 FM
STRAND 1 28 Jul 07:42:08 07:47:07 49° 260° (W) 07:52:07 ?
SO-67 28 Jul 07:50:34 07:53:05 19° 91° (E) 07:55:36 435.3500 MHz FM
Sapphire 28 Jul 07:56:12 08:00:35 24° 22° (NNE) 08:04:57 437.095 MHz 1200 baud AX-25 AFSK
Hamsat 28 Jul 08:21:42 08:25:47 44° 292° (WNW) 08:29:52 145.90 MHz
MaSat-1 28 Jul 08:22:37 08:26:56 26° 253° (WSW) 08:31:09 437.345 MHz
JAS-1B 28 Jul 08:28:04 08:32:51 15° 339° (NNW) 08:37:30 435.800 - 435.900 CW/SSB
PCSat 28 Jul 08:29:49 08:34:40 31° 31° (NNE) 08:39:30 145.825 MHz
KITSAT 1 28 Jul 08:54:43 09:02:48 68° 318° (NW) 09:10:54 435.175 FM
Saudisat 1A 28 Jul 09:11:38 09:15:59 59° 128° (SE) 09:20:22 436.775 MHz
HO-68 28 Jul 09:11:45 09:16:45 20° 86° (E) 09:21:43 435.675 MHz FM
AO-7 28 Jul 09:22:29 09:28:08 21° 327° (NNW) 09:33:46 29.400 - 29.500 MHz
SO-67 28 Jul 09:23:03 09:26:22 41° 290° (WNW) 09:29:40 435.3500 MHz FM
JAS-2 28 Jul 09:25:22 09:30:54 33° 304° (WNW) 09:35:54 435.800 - 435.900 CW/SSB, 435.910 FM
Sapphire 28 Jul 09:39:38 09:45:03 63° 46° (NE) 09:50:26 437.095 MHz 1200 baud AX-25 AFSK
PCSat 28 Jul 10:13:12 10:18:40 81° 234° (SW) 10:24:06 145.825 MHz
JAS-1B 28 Jul 10:16:22 10:19:24 12° 6° (N) 10:22:25 435.800 - 435.900 CW/SSB
UKube-1 28 Jul 10:32:45 10:36:56 42° 99° (E) 10:41:04 145.840 MHz, 145.915 MHz
Saudisat 1A 28 Jul 10:51:46 10:55:50 35° 329° (NNW) 10:59:56 436.775 MHz
KITSAT 1 28 Jul 10:52:20 10:59:40 36° 345° (NNW) 11:07:00 435.175 FM
HO-68 28 Jul 10:58:24 11:05:37 80° 108° (ESE) 11:12:46 435.675 MHz FM
AO-7 28 Jul 11:15:17 11:17:50 12° 354° (N) 11:20:23 29.400 - 29.500 MHz
Oscar 11 28 Jul 11:18:39 11:22:59 67° 102° (ESE) 11:27:19 145.825 FM, Beacon 2401.500 USB
Sapphire 28 Jul 11:23:28 11:28:11 31° 247° (WSW) 11:32:53 437.095 MHz 1200 baud AX-25 AFSK
Oscar 16 28 Jul 11:37:46 11:38:42 11° 44° (NE) 11:39:37 437.025 USB, Beacon 2401.1428
FUNcube-1 28 Jul 11:38:12 11:42:11 42° 98° (E) 11:46:10 145.950 - 145.970 MHz USB
PCSat 28 Jul 11:57:51 12:01:18 17° 254° (WSW) 12:04:44 145.825 MHz
JAS-1B 28 Jul 11:59:58 12:06:13 20° 32° (NNE) 12:12:32 435.800 - 435.900 CW/SSB
UKube-1 28 Jul 12:09:15 12:13:01 29° 298° (WNW) 12:16:45 145.840 MHz, 145.915 MHz
AO-27 28 Jul 12:15:36 12:17:09 11° 44° (NE) 12:18:41 436.795 MHz FM
Uribyol 2 28 Jul 12:16:01 12:17:42 12° 45° (NE) 12:19:23 436.500 FM
Saudisat 1A 28 Jul 12:33:25 12:36:36 19° 353° (N) 12:39:47 436.775 MHz
Oscar 19 28 Jul 12:44:29 12:48:46 28° 59° (ENE) 12:53:05 437.125 CW, 437.150 USB
HO-68 28 Jul 12:46:42 12:52:44 31° 309° (NW) 12:58:45 435.675 MHz FM
KITSAT 1 28 Jul 12:50:03 12:57:22 35° 14° (NNE) 13:04:39 435.175 FM
Oscar 11 28 Jul 12:55:40 12:58:47 20° 302° (WNW) 13:01:53 145.825 FM, Beacon 2401.500 USB
AO-7 28 Jul 13:02:58 13:07:15 15° 22° (NNE) 13:11:31 29.400 - 29.500 MHz
AO-Echo 28 Jul 13:06:02 13:10:12 24° 56° (ENE) 13:14:21 ?
Oscar 16 28 Jul 13:12:01 13:16:52 44° 65° (ENE) 13:21:44 437.025 USB, Beacon 2401.1428
FUNcube-1 28 Jul 13:14:59 13:18:27 26° 298° (WNW) 13:21:56 145.950 - 145.970 MHz USB
ITAMSAT 1 28 Jul 13:31:53 13:36:33 34° 61° (ENE) 13:41:13 435.822 SSB
JAS-1B 28 Jul 13:45:39 13:54:21 46° 56° (NE) 14:03:35 435.800 - 435.900 CW/SSB
SO-50 28 Jul 13:45:42 13:49:57 43° 124° (SE) 13:54:19 436.795 FM
TMSAT-1 28 Jul 13:47:28 13:51:05 19° 52° (NE) 13:54:42 436.925 FM
RS-15 28 Jul 13:47:34 13:57:25 40° 111° (ESE) 14:07:08 29.354 - 29.394 USB, Beacon 29.352 USB
AO-27 28 Jul 13:50:32 13:55:30 47° 65° (ENE) 14:00:30 436.795 MHz FM
Uribyol 2 28 Jul 13:51:05 13:56:04 48° 66° (ENE) 14:01:03 436.500 FM
Gurwin Techsat 1B 28 Jul 14:10:02 14:14:43 33° 61° (ENE) 14:19:25 435.225 FM
Saudisat 1A 28 Jul 14:14:06 14:17:37 22° 17° (NNE) 14:21:07 436.775 MHz
Oscar 19 28 Jul 14:22:48 14:27:50 58° 259° (WSW) 14:32:56 437.125 CW, 437.150 USB
HO-68 28 Jul 14:36:26 14:38:19 11° 334° (NNW) 14:40:12 435.675 MHz FM
AO-Echo 28 Jul 14:43:10 14:48:29 75° 256° (WSW) 14:53:50 ?
KITSAT 1 28 Jul 14:46:12 14:54:17 66° 41° (NE) 15:02:19 435.175 FM
AO-7 28 Jul 14:50:25 14:57:42 35° 48° (NE) 15:04:59 29.400 - 29.500 MHz
Oscar 16 28 Jul 14:51:45 14:56:22 34° 265° (W) 15:01:02 437.025 USB, Beacon 2401.1428
Uosat F 28 Jul 15:03:07 15:06:47 21° 54° (NE) 15:10:26 435.120 FM
ITAMSAT 1 28 Jul 15:10:56 15:15:57 46° 261° (W) 15:20:59 435.822 SSB
TMSAT-1 28 Jul 15:25:00 15:30:19 85° 72° (ENE) 15:35:40 436.925 FM
SO-50 28 Jul 15:26:14 15:30:34 43° 326° (NW) 15:35:02 436.795 FM
AO-27 28 Jul 15:30:31 15:35:12 33° 265° (W) 15:39:55 436.795 MHz FM
Uribyol 2 28 Jul 15:31:09 15:35:45 31° 265° (W) 15:40:23 436.500 FM
JAS-1B 28 Jul 15:35:18 15:44:25 68° 259° (W) 15:54:23 435.800 - 435.900 CW/SSB
UOSAT-12 28 Jul 15:49:19 15:53:49 53° 126° (SE) 15:58:25 437.025 FM, 437.400 FM
Gurwin Techsat 1B 28 Jul 15:49:23 15:54:32 50° 261° (W) 15:59:44 435.225 FM
Saudisat 1A 28 Jul 15:53:39 15:58:03 59° 40° (NE) 16:02:24 436.775 MHz
RS-15 28 Jul 15:57:50 16:08:54 81° 317° (NW) 16:19:56 29.354 - 29.394 USB, Beacon 29.352 USB
JAS-2 28 Jul 16:15:17 16:19:54 18° 45° (NE) 16:24:18 435.800 - 435.900 CW/SSB, 435.910 FM
AO-Echo 28 Jul 16:25:28 16:28:10 14° 276° (W) 16:30:53 ?
Uosat F 28 Jul 16:39:57 16:45:01 83° 254° (WSW) 16:50:07 435.120 FM
AO-7 28 Jul 16:41:28 16:49:51 81° 250° (WSW) 16:58:17 29.400 - 29.500 MHz
KITSAT 1 28 Jul 16:41:56 16:49:28 45° 245° (WSW) 16:56:58 435.175 FM
TMSAT-1 28 Jul 17:07:23 17:10:57 18° 273° (W) 17:14:33 436.925 FM
SO-50 28 Jul 17:08:43 17:12:14 21° 349° (N) 17:15:49 436.795 FM
OPAL 28 Jul 17:23:54 17:28:46 45° 102° (ESE) 17:33:40 ?
UOSAT-12 28 Jul 17:29:45 17:34:10 40° 328° (NNW) 17:38:39 437.025 FM, 437.400 FM
JAS-1B 28 Jul 17:30:22 17:36:53 21° 283° (WNW) 17:43:46 435.800 - 435.900 CW/SSB
Saudisat 1A 28 Jul 17:33:37 17:37:24 28° 241° (WSW) 17:41:09 436.775 MHz
Hamsat 28 Jul 17:45:11 17:49:04 38° 67° (ENE) 17:53:00 145.90 MHz
JAS-2 28 Jul 17:56:15 18:03:44 57° 66° (ENE) 18:10:36 435.800 - 435.900 CW/SSB, 435.910 FM
HO-68 28 Jul 18:05:09 18:07:19 12° 27° (NNE) 18:09:29 435.675 MHz FM
RS-15 28 Jul 18:12:22 18:22:52 47° 347° (NNW) 18:33:26 29.354 - 29.394 USB, Beacon 29.352 USB
Uosat F 28 Jul 18:21:53 18:24:37 15° 274° (W) 18:27:22 435.120 FM
SO-67 28 Jul 18:29:56 18:32:21 18° 62° (ENE) 18:34:47 435.3500 MHz FM
AO-7 28 Jul 18:37:43 18:43:58 23° 273° (W) 18:50:15 29.400 - 29.500 MHz
SO-50 28 Jul 18:50:36 18:54:17 22° 14° (NNE) 18:58:00 436.795 FM
OPAL 28 Jul 19:03:02 19:07:35 35° 301° (WNW) 19:12:09 ?
UOSAT-12 28 Jul 19:11:53 19:15:29 21° 351° (N) 19:19:06 437.025 FM, 437.400 FM
Hamsat 28 Jul 19:21:33 19:25:10 28° 266° (W) 19:28:50 145.90 MHz
JAS-2 28 Jul 19:41:41 19:48:56 42° 265° (W) 19:55:43 435.800 - 435.900 CW/SSB, 435.910 FM
STRAND 1 28 Jul 19:46:28 19:51:12 36° 96° (E) 19:55:53 ?
HO-68 28 Jul 19:46:49 19:52:56 32° 51° (NE) 19:59:04 435.675 MHz FM
UKube-1 28 Jul 20:00:25 20:02:46 15° 53° (NE) 20:05:09 145.840 MHz, 145.915 MHz
SO-67 28 Jul 20:01:48 20:05:10 46° 261° (W) 20:08:33 435.3500 MHz FM
RS-15 28 Jul 20:27:11 20:37:49 52° 20° (NNE) 20:48:39 29.354 - 29.394 USB, Beacon 29.352 USB
SO-50 28 Jul 20:31:14 20:35:50 50° 37° (NE) 20:40:29 436.795 FM
Oscar 11 28 Jul 20:45:11 20:48:05 18° 57° (ENE) 20:51:00 145.825 FM, Beacon 2401.500 USB
UOSAT-12 28 Jul 20:53:17 20:57:07 24° 16° (NNE) 21:00:57 437.025 FM, 437.400 FM
FUNcube-1 28 Jul 21:07:07 21:08:57 13° 54° (NE) 21:10:47 145.950 - 145.970 MHz USB
STRAND 1 28 Jul 21:25:41 21:30:29 41° 296° (WNW) 21:35:14 ?
HO-68 28 Jul 21:32:56 21:40:07 77° 253° (WSW) 21:47:20 435.675 MHz FM
UKube-1 28 Jul 21:33:57 21:38:19 81° 73° (ENE) 21:42:44 145.840 MHz, 145.915 MHz
SO-50 28 Jul 22:11:59 22:16:22 38° 238° (WSW) 22:20:48 436.795 FM
MaSat-1 28 Jul 22:18:42 22:22:53 52° 116° (ESE) 22:27:41 437.345 MHz
Oscar 11 28 Jul 22:19:30 22:23:49 74° 257° (WSW) 22:28:09 145.825 FM, Beacon 2401.500 USB
UOSAT-12 28 Jul 22:33:30 22:38:12 56° 39° (NE) 22:42:51 437.025 FM, 437.400 FM
RS-15 28 Jul 22:40:15 22:51:16 85° 230° (SW) 23:02:37 29.354 - 29.394 USB, Beacon 29.352 USB
FUNcube-1 28 Jul 22:40:24 22:44:41 75° 73° (ENE) 22:48:55 145.950 - 145.970 MHz USB
UKube-1 28 Jul 23:12:37 23:15:07 15° 272° (W) 23:17:38 145.840 MHz, 145.915 MHz
HO-68 28 Jul 23:24:14 23:29:02 19° 275° (W) 23:33:53 435.675 MHz FM
